Regional Weather Roundup
Issued by NWS

Home | Current Version | Previous Version | Graphics & Text | Print | Product List | Glossary On
Versions: 1 2 3 4 5 6 7 8 9 10 11 12 13 14 15 16 17 18 19 20 21 22 23 24 25 26 27 28 29 30 31 32 33 34 35 36 37 38 39 40 41 42 43 44 45 46 47 48 49 50
000
ASUS44 KMEG 220410
RWRTN
TENNESSEE HOURLY STATE WEATHER ROUNDUP
NATIONAL WEATHER SERVICE MEMPHIS TN
1100 PM CDT THU AUG 21 2014

TNZ002-004-019-021-049-052-054-088>092-220500-
WEST TENNESSEE

CITY           SKY/WX    TMP DP  RH WIND       PRES   REMARKS
MEMPHIS INTL   CLEAR     85  73  67 SW9G21    30.05S HX  91
NWS MEMPHIS      N/A     84 N/A N/A MISG        N/A
JACKSON        CLEAR     79  73  82 S6        30.06S
DYERSBURG      CLEAR     79  66  65 S3        30.05R
UNION CITY     CLEAR     77  73  88 S6        30.03S
PARIS          CLEAR     73  72  94 S7        30.06F
HUNTINGDON     CLEAR     78  73  84 S3        30.06R
LEXINGTON      CLEAR     77  73  88 S5        30.07R
SAVANNAH       CLEAR     75  75 100 CALM      30.09S
$$

TNZ008-025-027-028-033-062-065-066-220500-
NORTH MIDDLE TENNESSEE

CITY           SKY/WX    TMP DP  RH WIND       PRES   REMARKS
NASHVILLE      CLEAR     80  73  79 CALM      30.09R
DICKSON        CLEAR     79  72  78 SW5       30.09R
PORTLAND       CLEAR     79  72  78 S6        30.07S
CLARKSVILLE    PTCLDY    78  72  81 SW5       30.06R
LEBANON        CLEAR     78  71  79 SW5       30.07R
SMYRNA         CLEAR     76  73  90 CALM      30.10R
MURFREESBORO   CLEAR     80  71  74 CALM      30.09R
COOKEVILLE     CLEAR     73  72  94 CALM      30.12R
LIVINGSTON     CLEAR     76  70  82 SW5       30.13R
GALLATIN       CLEAR     78  75  90 CALM      30.09R
CROSSVILLE     CLEAR     74  68  81 CALM      30.18R
$$

TNZ061-075-076-078-094-096-097-220500-
SOUTH MIDDLE TENNESSEE

CITY           SKY/WX    TMP DP  RH WIND       PRES   REMARKS
LEWISBURG      CLEAR     75  71  87 CALM      30.09S
FAYETTEVILLE   CLEAR     75  70  83 CALM      30.12S
TULLAHOMA      CLEAR     73  70  88 CALM      30.14R
WINCHESTER     CLEAR     73  72  94 CALM      30.13R
MCMINNVILLE    CLEAR     73  73 100 CALM      30.13R
COLUMBIA       CLEAR     77  77 100 CALM      30.09R
SHELBYVILLE    CLEAR     75  73  94 CALM      30.12R
$$

TNZ017-018-042-046-047-220500-
NORTHEAST TENNESSEE

CITY           SKY/WX    TMP DP  RH WIND       PRES   REMARKS
TRI CITIES     MOCLDY    72  68  87 CALM      30.14S
ELIZABETHTON   PTCLDY    70  70 100 CALM      30.15S
$$

TNZ012-013-036-069-073-074-220500-
CENTRAL EAST TENNESSEE

CITY           SKY/WX    TMP DP  RH WIND       PRES   REMARKS
KNOXVILLE      MOCLDY    76  71  85 SW6       30.11R
OAK RIDGE      CLEAR     76  73  91 CALM      30.13R
GATLINBURG     CLEAR     73  70  88 CALM      30.12R
MORRISTOWN     CLEAR     75  73  94 CALM      30.14S
$$

TNZ083-085-099-220500-
SOUTHEAST TENNESSEE

CITY           SKY/WX    TMP DP  RH WIND       PRES   REMARKS
CHATTANOOGA    CLEAR     80  73  79 S3        30.11S
$$

SKY/WX REPORTED AS FAIR MEANS FEW OR NO CLOUDS BELOW
12 THOUSAND FEET.




USA.gov is the U.S. government's official web portal to all federal, state and local government web resources and services.